OpenBCM V1.07b12 (Linux)

Packet Radio Mailbox

DB0FHN

[JN59NK Nuernberg]

 Login: GUEST





  
I6KZR  > KEPLER   16.01.03 22:14l 1460 Lines 39196 Bytes #999 (0) @ WW
BID : 18344_IK6WID
Read: DB0FHN GUEST
Subj: 2L Keplerian Elements #016
Path: DB0FHN<DB0RGB<DB0MRW<DB0ERF<DB0FBB<DB0GOS<ON0AR<ON0AR<7M3TJZ<IK6PYS<
      I6ZLO<IK6WID
Sent: 030116/2032Z @:IK6WID.#AP.IMAR.ITA.EU #:18344 [MONTE URANO]  FBB7.00i
From: I6KZR@IK6WID.#AP.IMAR.ITA.EU
To  : KEPLER@WW


Satellite: OSCAR 7
Catalog number: 07530
Epoch time:      103014.65656427
Element set:     142 
Inclination:      101.7676 deg
RA of node:        62.7629 deg
Eccentricity:    0.0012584
Arg of perigee:   145.8142 deg
Mean anomaly:     214.3745 deg
Mean motion:   12.53563601 rev/day
Decay rate:   -2.9000E-007 rev/day^2
Epoch rev:           28881
Checksum:              295

Satellite: GOES 2
Catalog number: 10061
Epoch time:      103005.42586557
Element set:     46 
Inclination:       14.1214 deg
RA of node:        13.7857 deg
Eccentricity:    0.0013992
Arg of perigee:   196.1981 deg
Mean anomaly:     163.7785 deg
Mean motion:    0.99397401 rev/day
Decay rate:   -2.7099E-006 rev/day^2
Epoch rev:            3839
Checksum:              317

Satellite: GOES 3
Catalog number: 10953
Epoch time:      103015.03203425
Element set:     891 
Inclination:       13.3943 deg
RA of node:        17.4961 deg
Eccentricity:    0.0004480
Arg of perigee:   339.0428 deg
Mean anomaly:      20.9716 deg
Mean motion:    1.00278125 rev/day
Decay rate:   -8.2000E-007 rev/day^2
Epoch rev:            4315
Checksum:              370

Satellite: GOES 6
Catalog number: 14050
Epoch time:      103016.14731837
Element set:     413 
Inclination:       10.3589 deg
RA of node:        35.7489 deg
Eccentricity:    0.0003271
Arg of perigee:   352.2942 deg
Mean anomaly:       7.7428 deg
Mean motion:    1.00288535 rev/day
Decay rate:    9.9999E-009 rev/day^2
Epoch rev:           13031
Checksum:              301

Satellite: OSCAR 10
Catalog number: 14129
Epoch time:      103013.46521539
Element set:     911 
Inclination:       25.8708 deg
RA of node:       170.2888 deg
Eccentricity:    0.6042226
Arg of perigee:   318.8494 deg
Mean anomaly:       8.5240 deg
Mean motion:    2.05869613 rev/day
Decay rate:   -3.1300E-006 rev/day^2
Epoch rev:           11932
Checksum:              367

Satellite: OSCAR 11 (UoSA
Catalog number: 14781
Epoch time:      103015.55691930
Element set:     45 
Inclination:       98.1125 deg
RA of node:       349.2332 deg
Eccentricity:    0.0009166
Arg of perigee:   328.5434 deg
Mean anomaly:      31.5229 deg
Mean motion:   14.77885364 rev/day
Decay rate:    2.1980E-005 rev/day^2
Epoch rev:            1121
Checksum:              299

Satellite: NOAA 10
Catalog number: 16969
Epoch time:      103015.96372026
Element set:     628 
Inclination:       98.7262 deg
RA of node:        10.1511 deg
Eccentricity:    0.0012365
Arg of perigee:   181.2923 deg
Mean anomaly:     178.8228 deg
Mean motion:   14.27049626 rev/day
Decay rate:    2.4099E-006 rev/day^2
Epoch rev:           84911
Checksum:              316

Satellite: GOES 7
Catalog number: 17561
Epoch time:      103013.52827387
Element set:     810 
Inclination:        7.5470 deg
RA of node:        55.7264 deg
Eccentricity:    0.0004064
Arg of perigee:   288.6625 deg
Mean anomaly:     149.4031 deg
Mean motion:    1.00317770 rev/day
Decay rate:    1.1600E-006 rev/day^2
Epoch rev:            4138
Checksum:              275

Satellite: COSMOS 1861
Catalog number: 18129
Epoch time:      103014.96079564
Element set:     193 
Inclination:       82.9236 deg
RA of node:       172.1432 deg
Eccentricity:    0.0011171
Arg of perigee:   330.7665 deg
Mean anomaly:      29.2861 deg
Mean motion:   13.72697033 rev/day
Decay rate:    8.1000E-007 rev/day^2
Epoch rev:           77976
Checksum:              324

Satellite: EUTELSAT 1-F4 
Catalog number: 18351
Epoch time:      103012.43322123
Element set:     26 
Inclination:        7.1229 deg
RA of node:        58.6128 deg
Eccentricity:    0.0004965
Arg of perigee:   185.0153 deg
Mean anomaly:     173.9598 deg
Mean motion:    0.98817566 rev/day
Decay rate:   -2.5599E-006 rev/day^2
Epoch rev:            4231
Checksum:              308

Satellite: NOAA 11
Catalog number: 19531
Epoch time:      103015.98366486
Element set:     466 
Inclination:       98.9074 deg
RA of node:        97.4707 deg
Eccentricity:    0.0011075
Arg of perigee:   300.5014 deg
Mean anomaly:      59.5065 deg
Mean motion:   14.14520440 rev/day
Decay rate:    2.4700E-006 rev/day^2
Epoch rev:           73805
Checksum:              299

Satellite: ASTRA 1A
Catalog number: 19688
Epoch time:      103014.99740913
Element set:     557 
Inclination:        1.3098 deg
RA of node:        95.0777 deg
Eccentricity:    0.0004052
Arg of perigee:   195.2086 deg
Mean anomaly:     188.0162 deg
Mean motion:    1.00274118 rev/day
Decay rate:    5.3999E-007 rev/day^2
Epoch rev:            3185
Checksum:              423

Satellite: OSCAR 14 (UOSA
Catalog number: 20437
Epoch time:      103016.15156812
Element set:     142 
Inclination:       98.2781 deg
RA of node:        61.3543 deg
Eccentricity:    0.0010266
Arg of perigee:   305.7836 deg
Mean anomaly:      54.2391 deg
Mean motion:   14.31225578 rev/day
Decay rate:    1.9900E-006 rev/day^2
Epoch rev:           67771
Checksum:              297

Satellite: OSCAR 15 (UOSA
Catalog number: 20438
Epoch time:      103014.60775212
Element set:     767 
Inclination:       98.2526 deg
RA of node:        49.1608 deg
Eccentricity:    0.0009730
Arg of perigee:   322.7530 deg
Mean anomaly:      37.2973 deg
Mean motion:   14.30187345 rev/day
Decay rate:    1.2900E-006 rev/day^2
Epoch rev:           67716
Checksum:              308

Satellite: OSCAR 16 (PACS
Catalog number: 20439
Epoch time:      103016.17193492
Element set:     838 
Inclination:       98.3230 deg
RA of node:        72.8602 deg
Eccentricity:    0.0010514
Arg of perigee:   311.9591 deg
Mean anomaly:      48.0702 deg
Mean motion:   14.31457712 rev/day
Decay rate:    2.5899E-006 rev/day^2
Epoch rev:           67775
Checksum:              315

Satellite: OSCAR 17 (DOVE
Catalog number: 20440
Epoch time:      103015.74801290
Element set:     720 
Inclination:       98.3430 deg
RA of node:        76.2682 deg
Eccentricity:    0.0010773
Arg of perigee:   312.4728 deg
Mean anomaly:      47.5545 deg
Mean motion:   14.31733637 rev/day
Decay rate:    2.6099E-006 rev/day^2
Epoch rev:           67776
Checksum:              311

Satellite: OSCAR 18 (WEBE
Catalog number: 20441
Epoch time:      103015.52559383
Element set:     988 
Inclination:       98.3405 deg
RA of node:        75.2884 deg
Eccentricity:    0.0011257
Arg of perigee:   314.1003 deg
Mean anomaly:      45.9255 deg
Mean motion:   14.31538780 rev/day
Decay rate:    2.1200E-006 rev/day^2
Epoch rev:           67771
Checksum:              302

Satellite: OSCAR 19 (LUSA
Catalog number: 20442
Epoch time:      103015.71755215
Element set:     940 
Inclination:       98.3541 deg
RA of node:        78.4358 deg
Eccentricity:    0.0011653
Arg of perigee:   312.3548 deg
Mean anomaly:      47.6659 deg
Mean motion:   14.31701584 rev/day
Decay rate:    2.3800E-006 rev/day^2
Epoch rev:           67779
Checksum:              318

Satellite: JAS 1B (FUJI 2
Catalog number: 20480
Epoch time:      103014.93253251
Element set:     459 
Inclination:       99.0413 deg
RA of node:       344.2016 deg
Eccentricity:    0.0540896
Arg of perigee:    82.3042 deg
Mean anomaly:     283.9111 deg
Mean motion:   12.83328180 rev/day
Decay rate:    1.8000E-007 rev/day^2
Epoch rev:           60607
Checksum:              362

Satellite: HST
Catalog number: 20580
Epoch time:      103016.11299206
Element set:     299 
Inclination:       28.4668 deg
RA of node:       255.3947 deg
Eccentricity:    0.0003826
Arg of perigee:   273.6554 deg
Mean anomaly:     216.0156 deg
Mean motion:   14.97686959 rev/day
Decay rate:    1.0306E-004 rev/day^2
Epoch rev:           49761
Checksum:              330

Satellite: EUTELSAT 2-F1
Catalog number: 20777
Epoch time:      103014.98241427
Element set:     15 
Inclination:        3.4189 deg
RA of node:        84.8534 deg
Eccentricity:    0.0001209
Arg of perigee:   164.4729 deg
Mean anomaly:     294.4286 deg
Mean motion:    1.00271934 rev/day
Decay rate:   -8.2999E-007 rev/day^2
Epoch rev:            2575
Checksum:              315

Satellite: FENGYUN 1B
Catalog number: 20788
Epoch time:      103015.56692020
Element set:     858 
Inclination:       99.0228 deg
RA of node:       358.0881 deg
Eccentricity:    0.0015362
Arg of perigee:   325.7021 deg
Mean anomaly:      34.3152 deg
Mean motion:   14.02140145 rev/day
Decay rate:    9.5000E-007 rev/day^2
Epoch rev:           63277
Checksum:              280

Satellite: EUTELSAT 2-F2
Catalog number: 21056
Epoch time:      103015.13799191
Element set:     610 
Inclination:        2.6484 deg
RA of node:        88.2265 deg
Eccentricity:    0.0002557
Arg of perigee:   220.6689 deg
Mean anomaly:     263.3892 deg
Mean motion:    1.00276352 rev/day
Decay rate:    1.3699E-006 rev/day^2
Epoch rev:            3153
Checksum:              296

Satellite: INFORMATOR 1
Catalog number: 21087
Epoch time:      103015.06461279
Element set:     591 
Inclination:       82.9411 deg
RA of node:       342.9553 deg
Eccentricity:    0.0035785
Arg of perigee:   349.3789 deg
Mean anomaly:      10.6608 deg
Mean motion:   13.74922286 rev/day
Decay rate:    7.7999E-007 rev/day^2
Epoch rev:           60014
Checksum:              338

Satellite: COSMOS 2123
Catalog number: 21089
Epoch time:      103014.59682148
Element set:     499 
Inclination:       82.9205 deg
RA of node:       207.3200 deg
Eccentricity:    0.0030569
Arg of perigee:    25.5780 deg
Mean anomaly:     334.6874 deg
Mean motion:   13.74400241 rev/day
Decay rate:    6.6000E-007 rev/day^2
Epoch rev:           59898
Checksum:              318

